Preview of NWS' New Version of Forecast
This preview is not operational and should not be used for support decisions.
Latest weather observations around

Bangor, Bangor International Airport (KBGR)

Using English Units (Switch to International System of Units)
Date/ Time (EDT) Wind (mph) Vis. (mi) Weather Sky Cond. Temp (°F) Rel. Humidity Wind Chill (°F) Heat Index (°F) Pressure Precip. (in)
Air Dwpt 6 hour Altimeter (inHg) Sea level (inHg) 1 hr 3 hr 6 hr
Max Min
May 26 03:53 WSW 3 10 Cloudy FEW060 OVC130 70 59     68%     29.6 29.59      
May 26 02:53 SW 3 10 Cloudy OVC130 66 59     78%     29.6 29.59      
May 26 01:53 SW 5 10 Cloudy FEW050 OVC130 72 58     61%   72 29.61 29.59      
May 26 00:53 W 3 10 Cloudy BKN130 OVC250 72 57     59%   72 29.62 29.6      
May 25 23:53 SW 3 10 Cloudy SCT130 OVC250 73 57     57%   73 29.61 29.6      
May 25 22:53 WSW 6 10 Mostly Cloudy SCT130 BKN250 74 58     57%   74 29.61 29.59      
May 25 21:53 WSW 5 10 Mostly Cloudy SCT130 BKN250 75 57     54%   75 29.6 29.59      
May 25 20:53 W 8 10 Partly Cloudy FEW130 SCT250 77 55     47%   77 29.61 29.59      
May 25 19:53 WSW 8 10 Mostly Cloudy FEW090 SCT130 BKN250 79 55     44%   79 29.59 29.58      
May 25 18:53 WSW 9 10 Mostly Cloudy FEW050 SCT090 BKN250 81 54     39%   81 29.58 29.57      
May 25 17:53 W 16 10 Mostly Cloudy FEW050 SCT090 BKN250 84 54     36%   83 29.56 29.55      
May 25 16:53 W 10 10 Mostly Cloudy FEW050 SCT090 BKN250 85 49     29%   83 29.57 29.56      
May 25 15:53 W 13 10 Mostly Cloudy SCT050 BKN250 86 52     31%   84 29.57 29.56      
May 25 14:53 WSW 13 10 Mostly Cloudy SCT050 BKN250 85 52     32%   83 29.59 29.57      
May 25 13:53 WSW 13 10 Mostly Cloudy FEW050 BKN250 85 51     31%   83 29.6 29.59      
May 25 12:53 WSW 16 10 Mostly Cloudy FEW050 BKN250 83 51     33%   81 29.62 29.61      
May 25 11:53 W 9 10 Mostly Clear FEW050 83 52     34%   82 29.64 29.63      
May 25 10:53 W 13 10 Clear CLR 80 52     38%   80 29.66 29.65      
May 25 09:53 W 11 10 Clear CLR 75 50     41%   74 29.68 29.67      
May 25 08:53 W 13 10 Clear CLR 71 49     45%   70 29.7 29.69      
May 25 07:53 SW 7 10 Partly Cloudy SCT130 66 48     52%     29.72 29.72      
May 25 06:53 S 8 10 Partly Cloudy SCT130 55 48     77%     29.74 29.73      
May 25 05:53 SSW 7 10 Partly Cloudy SCT130 53 48     83%     29.75 29.75      
May 25 04:53 S 10 10 Mostly Cloudy BKN130 52 48     86%     29.77 29.76      
May 25 03:53 SSW 9 10 Mostly Clear FEW100 52 48     86%     29.79 29.79      
May 25 02:53 SSW 11 10 Mostly Clear FEW100 50 48     93% 46   29.82 29.82      
May 25 01:53 SSW 10 10 Mostly Clear FEW100 51 47     86%     29.88 29.87     0
May 25 00:53 S 11 10 Partly Cloudy SCT100 51 46     83%     29.91 29.91      
May 24 23:53 SSW 8 10 Cloudy FEW065 OVC085 52 45     77%     29.96 29.96 0    
May 24 22:53 SSW 8 10 Light Rain BKN090 BKN250 51 45     79%     29.98 29.98 0 0  
May 24 21:53 S 9 10 Mostly Clear FEW110 FEW250 50 44     80%     30 30      
May 24 20:53 S 9 10 Clear CLR 51 44     77%     30.01 30      
May 24 19:53 S 11 10 Mostly Cloudy FEW110 BKN250 52 43     71%     30 30      
May 24 18:53 S 13 10 Partly Cloudy FEW110 SCT250 55 44     66%     30 29.99      
May 24 17:53 S 17 10 Mostly Clear FEW120 FEW250 56 41     57%     30 30      
May 24 16:53 S 17 10 Mostly Clear FEW120 FEW250 58 41     53%     30.01 30.01      
May 24 15:53 S 16 10 Partly Cloudy FEW060 SCT250 60 43     53%     30.02 30.01      
May 24 14:53 S 16 10 Mostly Cloudy BKN060 62 42     48%     30.03 30.03      
May 24 13:53 S 13 10 Mostly Cloudy BKN075 62 43     50%     30.06 30.05      
May 24 12:53 SW 11 10 Mostly Cloudy SCT049 BKN070 61 41     48%     30.07 30.07      
May 24 11:53 SW 11 10 Mostly Cloudy SCT050 BKN070 61 41     48%     30.09 30.09      
May 24 10:53 3 10 Mostly Cloudy FEW045 BKN060 58 36     44%     30.1 30.1      
May 24 09:53 W 3 10 Mostly Cloudy FEW030 BKN055 56 33     42%     30.1 30.1      
May 24 08:53 SE 3 10 Mostly Cloudy BKN075 55 42     62%     30.1 30.1      
May 24 07:53 S 3 10 Mostly Cloudy FEW015 BKN085 50 46     86% 49   30.1 30.1      
May 24 06:53 Calm 10 Mostly Cloudy FEW070 BKN080 47 45     93%     30.09 30.09      
May 24 05:53 Calm 10 Patchy Fog BKN095 BKN200 42 42     100%     30.07 30.07      
May 24 04:53 Calm 10 Patchy Fog FEW020 FEW180 39 38     96%     30.05 30.05      
May 24 03:53 Calm 10 Partly Cloudy SCT250 43 42     97%     30.04 30.03      
May 24 02:53 Calm 10 Partly Cloudy SCT250 45 41     86%     30.02 30.02      
May 24 01:53 ENE 3 10 Mostly Cloudy SCT130 BKN250 47 42     83% 46   30.02 30.01      
May 24 00:53 NE 3 10 Mostly Cloudy FEW120 BKN250 50 41     71% 49   30.02 30.01      
May 23 23:53 NE 5 10 Partly Cloudy SCT250 50 41     71% 48   30.01 30      
May 23 22:53 NE 8 10 Partly Cloudy SCT250 51 41     68%     30 30      
May 23 21:53 NNE 9 10 Mostly Cloudy BKN250 54 39     57%     30 29.99      
May 23 20:53 N 7 10 Mostly Cloudy BKN250 55 37     51%     29.99 29.98      
May 23 19:53 N 14 10 Mostly Cloudy FEW040 BKN250 57 40     53%     29.97 29.96     0
May 23 18:53 N 15 10 Mostly Cloudy FEW040 BKN250 61 45     56%     29.93 29.93      
May 23 17:53 N 13 10 Mostly Cloudy BKN044 BKN250 63 48     58%     29.9 29.9      
May 23 16:53 N 13 10 Mostly Cloudy BKN048 BKN060 BKN085 62 47     58%     29.88 29.88   0  
May 23 15:53 NNE 14 10 Mostly Cloudy FEW055 BKN070 65 49     56%     29.84 29.83      
May 23 14:53 N 18 10 Mostly Cloudy BKN044 BKN065 65 52     63%     29.82 29.82 0    
May 23 13:53 N 11 8 Rain SCT048 BKN070 OVC085 68 55     63%     29.78 29.78 0   0
May 23 12:53 5 10 Mostly Cloudy SCT043 BKN050 72 53     51%   71 29.78 29.78      
May 23 11:53 W 9 10 Mostly Cloudy BKN037 71 53     53%   70 29.8 29.79      
May 23 10:53   10 Mostly Cloudy SCT029 BKN036 67 52     59%     29.82 29.81      
May 23 09:53 N 8 10 Mostly Cloudy BKN022 66 53     63%     29.82 29.82      
May 23 09:43 NW 9 10 Mostly Cloudy BKN022 65 54     68%     29.83        
May 23 08:53 Calm 10 Partly Cloudy SCT013 63 54     72%     29.84 29.83      
May 23 07:53 Calm 10 Mostly Cloudy SCT013 BKN040 57 51     81%     29.84 29.83     0
May 23 07:38 SSW 5 10 Partly Cloudy FEW016 SCT040 56 51     84%     29.84        
May 23 06:53 SSW 5 10 Mostly Cloudy BKN016 BKN040 54 50     86%     29.84 29.83      
May 23 05:53 SSW 5 10 Mostly Cloudy FEW019 FEW026 BKN039 53 50     89%     29.84 29.83      
May 23 04:53 S 5 10 Cloudy BKN044 OVC080 53 50     89%     29.84 29.83 0 0  
May 23 03:53 S 5 10 Cloudy BKN046 OVC080 53 51     93%     29.85 29.84 0    
May 23 02:53 SSE 6 10 Light Rain OVC055 54 51     90%     29.86 29.85 0    
May 23 01:53 S 5 10 Cloudy OVC055 54 51     90%     29.88 29.87     0
May 23 00:53 S 8 10 Cloudy FEW046 OVC060 55 51     86%     29.89 29.88      
May 22 23:53 S 8 10 Cloudy OVC070 56 51     84%     29.9 29.89      
May 22 22:53 S 9 10 Cloudy FEW055 OVC070 56 52     87%     29.92 29.92 0 0  
May 22 21:53 S 7 10 Light Rain OVC070 58 51     78%     29.96 29.95 0    
May 22 20:53 S 5 10 Cloudy OVC080 60 50     69%     29.97 29.96 0    
May 22 19:53 S 8 10 Cloudy OVC085 61 49     64%     29.99 29.98      
May 22 18:53 S 10 10 Cloudy BKN100 OVC200 63 48     58%     30 29.99      
May 22 16:53 S 13 10 Cloudy BKN120 OVC200 69 45     42%     30.02 30.01      
May 15 06:53 S 7 0.25 Fog OVC002 49 49     100% 46   29.81 29.8      
May 15 03:20 S 6 1 Fog/Mist OVC002 49 49     100% 46   29.83        
May 14 18:53 S 14 10 Mostly Clear FEW250 56 49     77%     29.82 29.82      
May 14 12:53 S 14 10 Mostly Clear FEW030 61 48     62%     29.89 29.89      
May 14 07:53 SSW 10 10 Cloudy OVC011 49 44     83% 45   30 30      
May 13 20:53 S 9 10 Mostly Clear FEW250 49 45     86% 45   30.08 30.08      
May 13 13:53 SSE 10 10 Mostly Clear FEW060 67 28     23%     30.12 30.11      
May 13 05:31 Calm 0.25 Fog VV001 36 36     100%     30.17        
May 12 19:53 S 9 10 Mostly Cloudy FEW050 BKN250 50 30     46% 46   30.1 30.1      
May 12 01:53 S 3 10 Clear CLR 40 23     50% 38   30.16 30.16      
Jun 11 12:53 SSW 15 10 Mostly Cloudy SCT150 BKN250 87 59     39%   86 29.75 29.74      
Jun 10 22:53 SSW 6 10 Clear   58 51     78%     29.92 29.91      
Jun 10 20:53 S 7 10 Mostly Cloudy FEW060 BKN250 61 51     70%     29.94 29.93      
Jun 10 17:53   10 Partly Cloudy FEW060 SCT250 68 48     49%     29.91 29.9      
Jun 09 21:53 W 7 10 Mostly Cloudy BKN120 57 55     93%     29.63 29.62      
Jun 09 17:59 3 10 Thunderstorms and Rain FEW055 SCT070 OVC090 55 53     93%     29.51   0    
Jun 09 17:53 6 10 Light Rain SCT070 OVC090 55 53     93%     29.51 29.5 0    
Jun 08 18:53   10 Mostly Cloudy BKN250 68 43     40%     29.89 29.88      
Jun 08 16:53   10 Mostly Cloudy SCT150 BKN250 76 50     40%   75 29.87 29.87      
Jun 06 08:45   10 Mostly Cloudy SCT015 BKN080 BKN150 50 41     71%     29.98        
Jun 05 18:53 SSE 6 10 Cloudy FEW060 OVC100 57 48     72%     29.99 29.99